TimeCST,TemperatureF,Dew PointF,Humidity,Sea Level PressureIn,VisibilityMPH,Wind Direction,Wind SpeedMPH,Gust SpeedMPH,PrecipitationIn,Events,Conditions,WindDirDegrees,DateUTC
12:54 AM,51.1,48.0,89,29.98,10.0,West,3.5,-,N/A,,Overcast,270,2012-11-06 06:54:00
1:06 AM,51.8,48.2,88,29.98,10.0,West,3.5,-,N/A,,Overcast,280,2012-11-06 07:06:00
1:54 AM,51.1,48.0,89,29.99,10.0,NW,4.6,-,N/A,,Overcast,310,2012-11-06 07:54:00
2:54 AM,50.0,48.0,93,30.00,10.0,NNW,6.9,-,N/A,,Overcast,340,2012-11-06 08:54:00
3:54 AM,50.0,46.9,89,30.01,10.0,North,9.2,-,N/A,,Overcast,360,2012-11-06 09:54:00
4:54 AM,48.9,46.9,93,30.00,10.0,North,9.2,-,N/A,,Overcast,350,2012-11-06 10:54:00
5:54 AM,48.9,45.0,86,30.03,10.0,WNW,4.6,-,N/A,,Overcast,300,2012-11-06 11:54:00
6:54 AM,48.0,45.0,89,30.05,10.0,NNE,4.6,-,N/A,,Overcast,30,2012-11-06 12:54:00
7:54 AM,48.9,45.0,86,30.06,10.0,North,6.9,-,N/A,,Mostly Cloudy,360,2012-11-06 13:54:00
8:54 AM,50.0,45.0,83,30.09,10.0,NNW,4.6,-,N/A,,Overcast,330,2012-11-06 14:54:00
9:11 AM,51.8,46.4,82,30.09,10.0,North,4.6,-,N/A,,Overcast,350,2012-11-06 15:11:00
9:54 AM,52.0,46.0,80,30.08,10.0,NNW,4.6,-,N/A,,Overcast,330,2012-11-06 15:54:00
10:12 AM,51.8,44.6,76,30.08,10.0,NW,6.9,-,N/A,,Overcast,310,2012-11-06 16:12:00
10:54 AM,54.0,45.0,72,30.06,10.0,NW,5.8,-,N/A,,Mostly Cloudy,320,2012-11-06 16:54:00
11:54 AM,55.9,45.0,67,30.05,10.0,WNW,6.9,-,N/A,,Overcast,300,2012-11-06 17:54:00
12:49 PM,57.2,46.4,67,30.04,10.0,NNW,6.9,-,N/A,,Overcast,330,2012-11-06 18:49:00
12:54 PM,57.9,46.0,65,30.03,10.0,NNW,8.1,-,N/A,,Mostly Cloudy,340,2012-11-06 18:54:00
1:54 PM,57.0,44.1,62,30.01,10.0,NW,8.1,-,N/A,,Mostly Cloudy,320,2012-11-06 19:54:00
2:54 PM,59.0,44.1,58,30.01,10.0,WNW,10.4,-,N/A,,Mostly Cloudy,300,2012-11-06 20:54:00
3:54 PM,57.0,43.0,59,30.00,10.0,NNW,8.1,-,N/A,,Mostly Cloudy,330,2012-11-06 21:54:00
4:54 PM,55.9,44.1,64,30.01,10.0,NW,5.8,-,N/A,,Mostly Cloudy,320,2012-11-06 22:54:00
5:54 PM,50.0,46.0,86,30.02,10.0,Calm,Calm,-,N/A,,Scattered Clouds,0,2012-11-06 23:54:00
6:54 PM,50.0,46.0,86,30.04,10.0,Calm,Calm,-,N/A,,Mostly Cloudy,0,2012-11-07 00:54:00
7:54 PM,48.9,45.0,86,30.05,10.0,Calm,Calm,-,N/A,,Partly Cloudy,0,2012-11-07 01:54:00
8:54 PM,46.0,44.1,93,30.06,10.0,Calm,Calm,-,N/A,,Clear,0,2012-11-07 02:54:00
9:54 PM,44.1,42.1,93,30.05,9.0,Calm,Calm,-,N/A,,Clear,0,2012-11-07 03:54:00
10:54 PM,44.1,42.1,93,30.04,10.0,Calm,Calm,-,N/A,,Clear,0,2012-11-07 04:54:00
11:54 PM,42.1,39.9,92,30.04,10.0,SSE,3.5,-,N/A,,Clear,150,2012-11-07 05:54:00